CZ-6A DEB

Satellite information

Favourite Embed

Satellite Type and Status

DEBRISIN ORBIT

Key statistics

Satellite CZ-6A DEB at a glance.

Uptime

439

Days in orbit

Revolutions

≈ 14.3

Per day

Orbit

LEO

Low Earth Orbit

Inclination

88.8

Latest

Satellite identification and parameters

Extended collection of information and parameters for CZ-6A DEB.

Object identification

Identified? True

Debris? True

Object name: CZ-6A DEB

International designator: 2024-140AD

Object number (NORAD): 60628

Object ID (CCSDS): 60628

Country: PEOPLES REPUBLIC OF CHINA (PRC)

Current information (Y/N): Y

RCS size: MEDIUM

Orbital parameters

Period: 100.749 minutes

Inclination: 88.8305 deg

SMA: 7172.23 km

Apoapsis: 796.903 km

Periapsis: 791.287 km

RAAN: 292.574 deg

Eccentricy: 0.0003915

Argument of periapsis: 337.1236 deg

Mean anomaly: 22.9785 deg

Mean motion: 14.29293649 rev/day

Mean motion (dot): 0.00001005 rev/day2

B* drag term: 0.00038932866 1/REarth

Two-line elements (TLE)

Creation date: Oct. 19, 2025, 2:20 a.m.

Reference frame: TEME

Reference center: EARTH

Epoch: Oct. 18, 2025, 11:38 p.m. UTC

TLE line 0: 0 CZ-6A DEB

TLE line 1: 1 60628U 24140AD 25291.98509149 .00001005 00000-0 38933-3 0 9992

TLE line 2: 2 60628 88.8305 292.5740 0003915 337.1236 22.9785 14.29293649 62413

Live tracking on map

Real-time ground track for satellite CZ-6A DEB.

In-orbit conjunctions

A list of the most updated potential collisions computed for object CZ-6A DEB.

Target Orbit TCA Probability of collision Miss distance Type
FENGYUN 1C DEB SSO 2025-04-09 09:16:17 0.0003129106 241.0 (m) DEBRIS
FENGYUN 1C DEB SSO 2025-03-05 16:25:36 0.0006167548 362.0 (m) DEBRIS
IRIDIUM 33 DEB LEO 2025-01-24 23:44:58 0.0001602514 713.0 (m) DEBRIS
CZ-6A DEB LEO 2024-11-17 11:47:22 0.000287473 395.0 (m) DEBRIS
FENGYUN 1C DEB * SSO 2024-11-14 23:14:31 0.0002519922 254.0 (m) DEBRIS

Associated space launch

18 Low Earth Orbit communication satellites with Ku, Q and V band payloads for the G60 constellation operated by Shanghai Spacecom Satellite Technology (SSST) with funding backed by the Shanghai local government. Initial constellation will consist of 1296 satellites by 2027 with long term plans to expand it to 12000 satellites.

CZ-6A DEB was lifted into orbit during the mission ‘Long March 6A | G60 Polar Group 01’, on board a Long March 6A space rocket.

The launch took place on Aug. 6, 2024, 6:42 a.m. from Launch Complex 9A.

For more information about the launch, click the button.

Launch to space Long March 6A | G60 Polar Group 01
Long March 6A | G60 Polar Group 01

Agency: N/A

Status: Launch Successful

Launch date: Aug. 6, 2024, 6:42 a.m. UTC

Rocket: Long March 6A

Launch pad: Launch Complex 9A

Location: Taiyuan Satellite Launch Center, People's Republic of China

...

Latest news about this satellite

News about space launch
Brightness of first Chinese broadband constellation satellites alarms astronomers

The first satellites of a Chinese broadband constellation are significantly brighter than those of Western systems, posing a new challenge for astronomers.

News about space launch
Chinese rocket stage breaks up into cloud of more than 700 pieces of space debris

HELSINKI — A Chinese Long March 6A rocket’s upper stage has fragmented into a cloud of over 700 pieces of space debris, adding to concerns about long-term orbital safety. China […]

News about space launch
China's Thousand Sails Megaconstellation Kicks Off with Dangerous Debris Field

China's Thousand Sails Megaconstellation Kicks Off with Dangerous Debris Field


Newsletter sign-up

Weekly statistics, charts and insights to help you stay on top of the space industry.